Volver al catálogo

STARLINK-32240

ActivoComunicacionesVLEO
NORAD 60438·PAYLOAD·🇺🇸 United States

Lanzado Aug 12, 2024 desde Cape Canaveral Space Force Station

Loading…

Próximos Pases (próximas 24 horas)

TLE

ActualizadoSource: CelesTrak SupGP

Época: Sep 14, 2026, 21:11 UTC

1 60438C 24144P   26257.88312500  .00031393  00000+0  92777-3 0  2575
2 60438  53.1578  53.9933 0001104  78.3911  40.7523 15.34366592    15

Sigue STARLINK-32240 en tiempo real con AllMySat

Download on the App Store